This is the latest recevied weather packets stored in our database for station/object KC7YCE. If no packets are shown the sender has not sent any weather packets the latest 10 day(s).
| Time | Temp. | Humidity | Pressure | Rain* | Wind** | Luminosity | Snow |
|---|---|---|---|---|---|---|---|
| 1777854613 | 14.44° C | 23% | 1018.9 hPa | 0 mm | - | - | - |
| 1777854013 | 15° C | 23% | 1018.9 hPa | 0 mm | - | - | - |
| 1777852213 | 16.11° C | 21% | 1019 hPa | 0 mm | - | - | - |
| 1777851613 | 15.56° C | 20% | 1019.1 hPa | 0 mm | - | - | - |
| 1777851016 | 15.56° C | 22% | 1019 hPa | 0 mm | - | - | - |
| 1777850418 | 16.11° C | 21% | 1019.1 hPa | 0 mm | - | - | - |
| 1777849813 | 15° C | 22% | 1019.1 hPa | 0 mm | - | - | - |
| 1777849212 | 15° C | 20% | 1019.1 hPa | 0 mm | - | - | - |
| 1777848719 | 16.11° C | 20% | 1019.3 hPa | 0 mm | - | - | - |
| 1777848613 | 16.11° C | 20% | 1019.3 hPa | 0 mm | - | - | - |
| 1777848013 | 16.67° C | 21% | 1019.3 hPa | 0 mm | - | - | - |
| 1777846812 | 16.11° C | 20% | 1019.4 hPa | 0 mm | - | - | - |
| 1777846183 | 16.11° C | 23% | 1019.5 hPa | 0 mm | - | - | - |
| 1777844954 | 15° C | 21% | 1019.9 hPa | 0 mm | - | - | - |
| 1777844352 | 15.56° C | 22% | 1020 hPa | 0 mm | - | - | - |
| 1777843752 | 15° C | 21% | 1020.1 hPa | 0 mm | - | - | - |
| 1777843122 | 15° C | 20% | 1020.2 hPa | 0 mm | - | - | - |
| 1777842492 | 15.56° C | 19% | 1020.1 hPa | 0 mm | - | - | - |
| 1777841893 | 16.67° C | 18% | 1020.4 hPa | 0 mm | - | - | - |
| 1777841292 | 16.67° C | 18% | 1020.4 hPa | 0 mm | - | - | - |
| 1777840662 | 16.67° C | 19% | 1020.5 hPa | 0 mm | - | - | - |
| 1777840062 | 16.67° C | 18% | 1020.7 hPa | 0 mm | - | - | - |
| 1777839462 | 16.67° C | 18% | 1020.7 hPa | 0 mm | - | - | - |
| 1777838862 | 16.11° C | 19% | 1020.9 hPa | 0 mm | - | - | - |
| 1777838262 | 15.56° C | 18% | 1021 hPa | 0 mm | - | - | - |
* Rain latest hour (hover to see other rain measurements)
** Current wind speed in m/s (hover to see current wind gust speed)